Miscellaneous Local Product
Issued by NWS Hastings, NE

Home | Current Version | Previous Version | Text Only | Print | Product List | Glossary Off
Versions: 1 2 3 4 5 6 7 8 9 10 11 12 13 14 15 16 17 18 19 20 21 22 23 24 25 26 27 28 29 30 31 32 33 34 35 36 37 38 39 40 41 42 43 44 45 46 47 48 49 50

000
AXUS43 KGID 011102
MISGRI

GID CWA HOURLY WEATHER ROUNDUP
NATIONAL WEATHER SERVICE HASTINGS NE
600 AM CDT FRI AUG 01 2014

NOTE: "FAIR" INDICATES FEW OR NO CLOUDS BELOW 12,000 FEET WITH NO
SIGNIFICANT WEATHER AND/OR OBSTRUCTIONS TO VISIBILITY.

...SOUTH CENTRAL NEBRASKA...

CITY           SKY/WX    TMP DP  RH WIND       PRES   REMARKS
GRAND ISLAND   CLEAR     58  56  93 NW6       30.07R
HASTINGS       CLEAR     60  56  86 N6        30.06S
KEARNEY        CLEAR     59  55  88 NW5       30.09R
ORD            CLEAR     56  55  97 N3        30.08R FOG
YORK           CLEAR     55  55 100 N5        30.05R
AURORA         CLEAR     59  59 100 N5        30.06R
LEXINGTON      CLEAR     56  54  94 W5        30.11R
HOLDREGE       CLEAR     58  56  95 NW6       30.09R FOG
HEBRON         CLEAR     59  55  87 CALM      30.02F

...NEBRASKA PANHANDLE...

CITY           SKY/WX    TMP DP  RH WIND       PRES   REMARKS
CHADRON        CLEAR     53  45  74 SW5       30.13S
ALLIANCE       CLEAR     50  44  80 CALM      30.17S
SCOTTSBLUFF    CLEAR     55  50  83 CALM      30.18S
SIDNEY         CLEAR     50  45  83 W7        30.19F

...WESTERN AND NORTH CENTRAL NEBRASKA...

CITY           SKY/WX    TMP DP  RH WIND       PRES   REMARKS
VALENTINE      CLEAR     54  53  97 CALM      30.10R
AINSWORTH      CLEAR     57  57 100 S5        30.11R FOG
ONEILL         FOG       57  57  99 W3        30.09S VSB 1/4
BROKEN BOW     CLEAR     54  52  93 CALM      30.10R
IMPERIAL       CLEAR     59  53  80 CALM      30.14F
NORTH PLATTE   CLEAR     53  49  86 CALM      30.12F
MCCOOK         CLEAR     56  54  93 NW6       30.11F

...EASTERN NEBRASKA...

CITY           SKY/WX    TMP DP  RH WIND       PRES   REMARKS
NORFOLK        FOG       56  54  93 CALM      30.07R VSB 1/2
SO SIOUX CITY  FOG       54  53  97 CALM      30.07S VSB 1/4
TEKAMAH        CLEAR     60  57  89 N5        30.06R
ALBION         CLEAR     55  54  95 CALM      30.08S FOG
OMAHA EPPLEY   PTCLDY    66  60  81 SE8       30.05S
OFFUTT AFB     MOCLDY    65  65  99 SE7       30.04S
MILLARD        PTCLDY    66  61  85 SE5       30.04S
LINCOLN        CLEAR     66  57  72 SE5       30.04R
NEBRASKA CITY  CLOUDY    64  64  99 SE8       30.04F
BEATRICE       CLEAR     65  59  81 SE9       30.01F
FALLS CITY     CLOUDY    65  62  90 E5        30.05F

...NORTHERN KANSAS...

CITY           SKY/WX    TMP DP  RH WIND       PRES   REMARKS
GOODLAND       CLEAR     55  52  89 N5        30.18S
HILL CITY      CLEAR     59  53  80 W5        30.08R
NORTON         SUNNY     57  52  82 NW5       30.09R
PHILLIPSBURG   CLEAR     63  61  94 NW5       30.05S
SMITH CENTER   CLEAR     57  55  94 N5        30.05S
HAYS           CLEAR     61  54  77 W8        30.06S
RUSSELL        CLEAR     62  58  86 SW9       30.04S
CONCORDIA      CLEAR     61  56  83 CALM      30.02S
SALINA         CLEAR     62  55  77 SE6       30.03F
TOPEKA         CLOUDY    66  64  93 CALM      30.07S



USA.gov is the U.S. government's official web portal to all federal, state and local government web resources and services.